| time (UTC) | temp F | wind direction | speed MPH | gust MPH | rain 1hr in | rain 24hr in | rain mn in | humidity % | barometer mb |
| 20260906123027 | 77 | 95 | 1.0 | 4.0 | 0.00 | 0.00 | 0.00 | 89 | 1011.8 |
| 20260906122521 | 77 | 103 | 2.0 | 4.0 | 0.00 | 0.00 | 0.00 | 89 | 1012.0 |
| 20260906122017 | 77 | 16 | 0.0 | 2.0 | 0.00 | 0.00 | 0.00 | 90 | 1011.7 |
| 20260906121513 | 77 | 23 | 0.0 | 2.0 | 0.00 | 0.00 | 0.00 | 90 | 1011.5 |
| 20260906121009 | 77 | 74 | 0.0 | 2.0 | 0.00 | 0.00 | 0.00 | 90 | 1011.5 |
| 20260906120504 | 77 | 44 | 0.0 | 2.0 | 0.00 | 0.00 | 0.00 | 90 | 1011.3 |
| 20260906120002 | 77 | 34 | 0.0 | 2.0 | 0.00 | 0.00 | 0.00 | 90 | 1011.4 |
| 20260906115455 | 77 | 82 | 0.0 | 2.0 | 0.00 | 0.00 | 0.00 | 90 | 1011.5 |
| 20260906114950 | 77 | 124 | 1.0 | 2.0 | 0.00 | 0.00 | 0.00 | 90 | 1011.3 |
| 20260906114445 | 77 | 55 | 0.0 | 2.0 | 0.00 | 0.00 | 0.00 | 89 | 1011.3 |
| 20260906113941 | 77 | 74 | 0.0 | 2.0 | 0.00 | 0.00 | 0.00 | 89 | 1011.3 |
| 20260906113439 | 77 | 109 | 1.0 | 2.0 | 0.00 | 0.00 | 0.00 | 89 | 1011.3 |
| 20260906112935 | 77 | 137 | 0.0 | 1.0 | 0.00 | 0.00 | 0.00 | 89 | 1011.3 |
| 20260906112430 | 77 | 142 | 0.0 | 1.0 | 0.00 | 0.00 | 0.00 | 89 | 1011.3 |
| 20260906111926 | 77 | 57 | 0.0 | 2.0 | 0.00 | 0.00 | 0.00 | 89 | 1011.1 |
| 20260906111425 | 77 | 50 | 0.0 | 2.0 | 0.00 | 0.00 | 0.00 | 88 | 1011.1 |
| 20260906110920 | 77 | 68 | 0.0 | 1.0 | 0.00 | 0.00 | 0.00 | 88 | 1011.2 |
| 20260906110416 | 77 | 75 | 0.0 | 3.0 | 0.00 | 0.00 | 0.00 | 88 | 1011.1 |
| 20260906105915 | 78 | 93 | 2.0 | 2.0 | 0.00 | 0.00 | 0.00 | 87 | 1011.1 |
| 20260906105411 | 78 | 62 | 0.0 | 2.0 | 0.00 | 0.00 | 0.00 | 87 | 1011.1 |
| 20260906104907 | 78 | 50 | 0.0 | 2.0 | 0.00 | 0.00 | 0.00 | 87 | 1010.8 |
| 20260906104405 | 78 | 55 | 0.0 | 2.0 | 0.00 | 0.00 | 0.00 | 87 | 1010.9 |
| 20260906103904 | 78 | 75 | 1.0 | 2.0 | 0.00 | 0.00 | 0.00 | 87 | 1010.9 |
| 20260906103402 | 78 | 57 | 2.0 | 2.0 | 0.00 | 0.00 | 0.00 | 87 | 1011.0 |
| 20260906102858 | 78 | 309 | 0.0 | 0.0 | 0.00 | 0.00 | 0.00 | 87 | 1010.6 |
| 20260906102357 | 78 | 62 | 0.0 | 0.0 | 0.00 | 0.00 | 0.00 | 87 | 1010.9 |
| 20260906101852 | 78 | 75 | 0.0 | 1.0 | 0.00 | 0.00 | 0.00 | 86 | 1010.9 |
| 20260906101347 | 78 | 62 | 0.0 | 2.0 | 0.00 | 0.00 | 0.00 | 86 | 1010.6 |
| 20260906100843 | 78 | 230 | 0.0 | 0.0 | 0.00 | 0.00 | 0.00 | 85 | 1010.5 |
| 20260906100342 | 78 | 284 | 0.0 | 1.0 | 0.00 | 0.00 | 0.00 | 85 | 1010.4 |
| 20260906095837 | 79 | 223 | 2.0 | 2.0 | 0.00 | 0.00 | 0.00 | 85 | 1010.3 |
| 20260906095333 | 78 | 236 | 1.0 | 3.0 | 0.00 | 0.00 | 0.00 | 85 | 1010.1 |
| 20260906094832 | 78 | 245 | 1.0 | 2.0 | 0.00 | 0.00 | 0.00 | 85 | 1010.5 |
| 20260906094326 | 78 | 217 | 0.0 | 2.0 | 0.00 | 0.00 | 0.00 | 86 | 1010.3 |
| 20260906093823 | 78 | 297 | 0.0 | 2.0 | 0.00 | 0.00 | 0.00 | 86 | 1010.4 |
| 20260906093313 | 78 | 305 | 0.0 | 1.0 | 0.00 | 0.00 | 0.00 | 86 | 1010.2 |
| 20260906092808 | 79 | 189 | 0.0 | 2.0 | 0.00 | 0.00 | 0.00 | 85 | 1010.2 |
| 20260906092305 | 79 | 157 | 0.0 | 2.0 | 0.00 | 0.00 | 0.00 | 85 | 1010.0 |
| 20260906091758 | 79 | 217 | 1.0 | 2.0 | 0.00 | 0.00 | 0.00 | 84 | 1010.2 |
| 20260906091254 | 79 | 192 | 1.0 | 2.0 | 0.00 | 0.00 | 0.00 | 84 | 1010.4 |
| 20260906090750 | 79 | 186 | 0.0 | 2.0 | 0.00 | 0.00 | 0.00 | 84 | 1010.1 |
| 20260906090248 | 79 | 193 | 1.0 | 2.0 | 0.00 | 0.00 | 0.00 | 84 | 1010.2 |
| 20260906085748 | 79 | 214 | 0.0 | 2.0 | 0.00 | 0.00 | 0.00 | 84 | 1010.2 |
| 20260906085242 | 79 | 179 | 1.0 | 2.0 | 0.00 | 0.00 | 0.00 | 84 | 1010.3 |
| 20260906084737 | 79 | 229 | 0.0 | 1.0 | 0.00 | 0.00 | 0.00 | 84 | 1010.2 |
| 20260906084236 | 79 | 299 | 0.0 | 1.0 | 0.00 | 0.00 | 0.00 | 84 | 1010.3 |
| 20260906083732 | 79 | 297 | 0.0 | 2.0 | 0.00 | 0.00 | 0.00 | 83 | 1010.5 |
| 20260906083227 | 80 | 230 | 0.0 | 1.0 | 0.00 | 0.00 | 0.00 | 83 | 1010.3 |
| 20260906082721 | 80 | 199 | 0.0 | 1.0 | 0.00 | 0.00 | 0.00 | 82 | 1010.4 |
| 20260906082211 | 80 | 205 | 0.0 | 2.0 | 0.00 | 0.00 | 0.00 | 82 | 1010.4 |
| 20260906081707 | 80 | 239 | 1.0 | 2.0 | 0.00 | 0.00 | 0.00 | 82 | 1010.3 |
| 20260906081202 | 80 | 205 | 1.0 | 2.0 | 0.00 | 0.00 | 0.00 | 82 | 1010.2 |
| 20260906080659 | 80 | 250 | 0.0 | 3.0 | 0.00 | 0.00 | 0.00 | 82 | 1010.4 |
| 20260906080154 | 80 | 196 | 2.0 | 4.0 | 0.00 | 0.00 | 0.00 | 81 | 1010.2 |
| 20260906075654 | 81 | 282 | 0.0 | 5.0 | 0.00 | 0.00 | 0.00 | 81 | 1010.2 |
| 20260906075149 | 81 | 224 | 0.0 | 2.0 | 0.00 | 0.00 | 0.00 | 81 | 1010.5 |
| 20260906074644 | 81 | 197 | 0.0 | 3.0 | 0.00 | 0.00 | 0.00 | 81 | 1010.4 |
| 20260906074143 | 81 | 202 | 0.0 | 3.0 | 0.00 | 0.00 | 0.00 | 80 | 1010.3 |
| 20260906073638 | 81 | 201 | 0.0 | 3.0 | 0.00 | 0.00 | 0.00 | 80 | 1010.4 |
| 20260906073134 | 81 | 186 | 1.0 | 3.0 | 0.00 | 0.00 | 0.00 | 80 | 1010.4 |
| 20260906072629 | 82 | 293 | 0.0 | 2.0 | 0.00 | 0.00 | 0.00 | 79 | 1010.6 |
| 20260906072125 | 82 | 186 | 2.0 | 3.0 | 0.00 | 0.00 | 0.00 | 79 | 1010.8 |
| 20260906071621 | 82 | 117 | 0.0 | 6.0 | 0.00 | 0.00 | 0.00 | 79 | 1010.8 |
| 20260906071120 | 82 | 157 | 0.0 | 3.0 | 0.00 | 0.00 | 0.00 | 79 | 1010.6 |
| 20260906070612 | 82 | 184 | 1.0 | 5.0 | 0.00 | 0.00 | 0.00 | 78 | 1010.8 |
| 20260906070107 | 82 | 176 | 4.0 | 5.0 | 0.00 | 0.00 | 0.00 | 78 | 1010.6 |
| 20260906065607 | 82 | 189 | 2.0 | 6.0 | 0.00 | 0.00 | 0.00 | 78 | 1010.8 |
| 20260906065102 | 82 | 155 | 3.0 | 5.0 | 0.00 | 0.00 | 0.00 | 77 | 1010.8 |
| 20260906064557 | 83 | 195 | 2.0 | 4.0 | 0.00 | 0.00 | 0.00 | 77 | 1010.9 |
| 20260906064052 | 83 | 194 | 3.0 | 7.0 | 0.00 | 0.00 | 0.00 | 77 | 1010.9 |
| 20260906063547 | 83 | 185 | 0.0 | 6.0 | 0.00 | 0.00 | 0.00 | 77 | 1011.1 |
| 20260906063043 | 83 | 251 | 1.0 | 5.0 | 0.00 | 0.00 | 0.00 | 76 | 1011.2 |
| 20260906062538 | 83 | 223 | 3.0 | 4.0 | 0.00 | 0.00 | 0.00 | 76 | 1011.1 |
| 20260906062032 | 84 | 173 | 3.0 | 6.0 | 0.00 | 0.00 | 0.00 | 76 | 1011.1 |
| 20260906061529 | 84 | 158 | 4.0 | 7.0 | 0.00 | 0.00 | 0.00 | 76 | 1011.2 |
| 20260906061028 | 84 | 183 | 2.0 | 5.0 | 0.00 | 0.00 | 0.00 | 76 | 1011.3 |
| 20260906060525 | 84 | 190 | 2.0 | 5.0 | 0.00 | 0.00 | 0.00 | 76 | 1011.0 |
| 20260906060021 | 84 | 183 | 1.0 | 4.0 | 0.00 | 0.00 | 0.00 | 76 | 1011.1 |
| 20260906055518 | 83 | 198 | 2.0 | 3.0 | 0.00 | 0.00 | 0.00 | 76 | 1011.2 |
| 20260906055013 | 83 | 189 | 2.0 | 3.0 | 0.00 | 0.00 | 0.00 | 76 | 1011.1 |
| 20260906054513 | 84 | 202 | 1.0 | 2.0 | 0.00 | 0.00 | 0.00 | 76 | 1011.0 |
| 20260906054008 | 83 | 213 | 0.0 | 3.0 | 0.00 | 0.00 | 0.00 | 76 | 1010.7 |
| 20260906053504 | 83 | 213 | 0.0 | 3.0 | 0.00 | 0.00 | 0.00 | 76 | 1010.7 |
| 20260906053000 | 83 | 230 | 0.0 | 1.0 | 0.00 | 0.00 | 0.00 | 76 | 1010.9 |
| 20260906052455 | 84 | 248 | 1.0 | 2.0 | 0.00 | 0.00 | 0.00 | 75 | 1010.8 |
| 20260906051952 | 84 | 152 | 1.0 | 3.0 | 0.00 | 0.00 | 0.00 | 75 | 1011.0 |
| 20260906051447 | 84 | 210 | 0.0 | 2.0 | 0.00 | 0.00 | 0.00 | 75 | 1011.1 |
| 20260906050943 | 84 | 296 | 0.0 | 2.0 | 0.00 | 0.00 | 0.00 | 75 | 1010.9 |
| 20260906050443 | 84 | 288 | 0.0 | 2.0 | 0.00 | 0.00 | 0.00 | 74 | 1010.8 |
| 20260906045942 | 84 | 297 | 0.0 | 3.0 | 0.00 | 0.00 | 0.00 | 74 | 1011.0 |
| 20260906045441 | 85 | 196 | 2.0 | 4.0 | 0.00 | 0.00 | 0.00 | 73 | 1011.0 |
| 20260906044937 | 85 | 137 | 1.0 | 3.0 | 0.00 | 0.00 | 0.00 | 73 | 1011.1 |
| 20260906044432 | 85 | 159 | 2.0 | 3.0 | 0.00 | 0.00 | 0.00 | 73 | 1011.1 |
| 20260906043927 | 85 | 143 | 1.0 | 3.0 | 0.00 | 0.00 | 0.00 | 72 | 1011.1 |
| 20260906043423 | 85 | 171 | 2.0 | 3.0 | 0.00 | 0.00 | 0.00 | 72 | 1011.0 |
| 20260906042919 | 85 | 184 | 0.0 | 4.0 | 0.00 | 0.00 | 0.00 | 72 | 1010.7 |
| 20260906042418 | 86 | 212 | 2.0 | 4.0 | 0.00 | 0.00 | 0.00 | 71 | 1010.9 |
| 20260906041913 | 86 | 131 | 0.0 | 5.0 | 0.00 | 0.00 | 0.00 | 71 | 1010.5 |
| 20260906041409 | 86 | 198 | 3.0 | 5.0 | 0.00 | 0.00 | 0.00 | 70 | 1010.7 |
| 20260906040909 | 86 | 144 | 0.0 | 7.0 | 0.00 | 0.00 | 0.00 | 70 | 1010.9 |
| 20260906040404 | 86 | 202 | 0.0 | 7.0 | 0.00 | 0.00 | 0.00 | 69 | 1010.9 |
| 20260906035859 | 86 | 177 | 3.0 | 9.0 | 0.00 | 0.00 | 0.00 | 69 | 1010.9 |
| 20260906035355 | 86 | 174 | 3.0 | 5.0 | 0.00 | 0.00 | 0.00 | 69 | 1010.8 |
| 20260906034850 | 87 | 139 | 2.0 | 6.0 | 0.00 | 0.00 | 0.00 | 68 | 1010.6 |
| 20260906034344 | 87 | 243 | 0.0 | 5.0 | 0.00 | 0.00 | 0.00 | 68 | 1010.8 |
| 20260906033840 | 87 | 214 | 0.0 | 6.0 | 0.00 | 0.00 | 0.00 | 67 | 1010.9 |
| 20260906033339 | 87 | 143 | 3.0 | 7.0 | 0.00 | 0.00 | 0.00 | 67 | 1010.8 |
| 20260906032836 | 87 | 170 | 3.0 | 9.0 | 0.00 | 0.00 | 0.00 | 67 | 1010.8 |
| 20260906032332 | 87 | 157 | 4.0 | 8.0 | 0.00 | 0.00 | 0.00 | 68 | 1011.0 |
| 20260906031827 | 87 | 202 | 3.0 | 5.0 | 0.00 | 0.00 | 0.00 | 68 | 1010.8 |
| 20260906031322 | 87 | 181 | 1.0 | 5.0 | 0.00 | 0.00 | 0.00 | 69 | 1011.0 |
| 20260906030821 | 87 | 175 | 1.0 | 5.0 | 0.00 | 0.00 | 0.00 | 69 | 1010.8 |
| 20260906030317 | 87 | 108 | 0.0 | 4.0 | 0.00 | 0.00 | 0.00 | 68 | 1010.9 |
| 20260906025811 | 88 | 177 | 1.0 | 5.0 | 0.00 | 0.00 | 0.00 | 68 | 1010.9 |
| 20260906025306 | 88 | 136 | 4.0 | 6.0 | 0.00 | 0.00 | 0.00 | 68 | 1010.6 |
| 20260906024805 | 88 | 154 | 4.0 | 8.0 | 0.00 | 0.00 | 0.00 | 67 | 1010.5 |
| 20260906024304 | 88 | 151 | 3.0 | 7.0 | 0.00 | 0.00 | 0.00 | 68 | 1010.4 |
| 20260906023759 | 88 | 142 | 3.0 | 6.0 | 0.00 | 0.00 | 0.00 | 67 | 1010.2 |
| 20260906023254 | 88 | 137 | 5.0 | 6.0 | 0.00 | 0.00 | 0.00 | 67 | 1010.5 |
| 20260906022750 | 88 | 151 | 3.0 | 9.0 | 0.00 | 0.00 | 0.00 | 67 | 1010.2 |
| 20260906022245 | 88 | 119 | 3.0 | 6.0 | 0.00 | 0.00 | 0.00 | 66 | 1010.3 |
| 20260906021741 | 89 | 105 | 1.0 | 7.0 | 0.00 | 0.00 | 0.00 | 66 | 1010.1 |
| 20260906021240 | 89 | 69 | 1.0 | 5.0 | 0.00 | 0.00 | 0.00 | 65 | 1010.0 |
| 20260906020735 | 89 | 148 | 1.0 | 5.0 | 0.00 | 0.00 | 0.00 | 64 | 1009.9 |
| 20260906020235 | 89 | 115 | 3.0 | 5.0 | 0.00 | 0.00 | 0.00 | 63 | 1010.1 |
| 20260906015730 | 89 | 111 | 3.0 | 11.0 | 0.00 | 0.00 | 0.00 | 63 | 1009.7 |
| 20260906015228 | 90 | 168 | 2.0 | 8.0 | 0.00 | 0.00 | 0.00 | 62 | 1009.9 |
| 20260906014723 | 90 | 153 | 5.0 | 11.0 | 0.00 | 0.00 | 0.00 | 61 | 1009.6 |
| 20260906014219 | 90 | 101 | 2.0 | 8.0 | 0.00 | 0.00 | 0.00 | 61 | 1009.6 |
| 20260906013715 | 90 | 333 | 0.0 | 7.0 | 0.00 | 0.00 | 0.00 | 61 | 1009.6 |
| 20260906013214 | 90 | 145 | 2.0 | 7.0 | 0.00 | 0.00 | 0.00 | 61 | 1009.8 |
| 20260906012709 | 90 | 146 | 3.0 | 12.0 | 0.00 | 0.00 | 0.00 | 60 | 1009.5 |
| 20260906012204 | 91 | 120 | 3.0 | 9.0 | 0.00 | 0.00 | 0.00 | 59 | 1009.4 |
| 20260906011700 | 91 | 105 | 6.0 | 11.0 | 0.00 | 0.00 | 0.00 | 58 | 1009.2 |
| 20260906011154 | 92 | 101 | 4.0 | 11.0 | 0.00 | 0.00 | 0.00 | 56 | 1009.3 |
| 20260906010649 | 93 | 137 | 4.0 | 5.0 | 0.00 | 0.00 | 0.00 | 50 | 1009.1 |
| 20260906010145 | 94 | 159 | 3.0 | 6.0 | 0.00 | 0.00 | 0.00 | 50 | 1009.3 |
| 20260906005645 | 94 | 183 | 0.0 | 4.0 | 0.00 | 0.00 | 0.00 | 49 | 1009.1 |
| 20260906005144 | 94 | 271 | 0.0 | 5.0 | 0.00 | 0.00 | 0.00 | 49 | 1009.1 |
| 20260906004638 | 94 | 191 | 0.0 | 5.0 | 0.00 | 0.00 | 0.00 | 49 | 1009.1 |
| 20260906004133 | 95 | 23 | 0.0 | 5.0 | 0.00 | 0.00 | 0.00 | 48 | 1009.0 |
| 20260906003628 | 95 | 141 | 2.0 | 6.0 | 0.00 | 0.00 | 0.00 | 47 | 1009.0 |
| 20260906003124 | 95 | 180 | 3.0 | 6.0 | 0.00 | 0.00 | 0.00 | 47 | 1008.9 |
| 20260906002619 | 95 | 139 | 0.0 | 5.0 | 0.00 | 0.00 | 0.00 | 47 | 1009.0 |
| 20260906002114 | 96 | 116 | 5.0 | 6.0 | 0.00 | 0.00 | 0.00 | 46 | 1009.1 |
| 20260906001608 | 96 | 168 | 2.0 | 5.0 | 0.00 | 0.00 | 0.00 | 46 | 1009.1 |
| 20260906001103 | 96 | 149 | 4.0 | 9.0 | 0.00 | 0.00 | 0.00 | 46 | 1008.9 |
| 20260906000559 | 96 | 87 | 6.0 | 10.0 | 0.00 | 0.00 | 0.00 | 46 | 1008.9 |
| 20260906000054 | 97 | 187 | 2.0 | 12.0 | 0.00 | 0.00 | 0.00 | 45 | 1008.7 |
| 20260905235553 | 97 | 148 | 4.0 | 14.0 | 0.00 | 0.00 | 0.00 | 45 | 1008.6 |
| 20260905235049 | 98 | 119 | 8.0 | 14.0 | 0.00 | 0.00 | 0.00 | 44 | 1008.8 |
| 20260905234544 | 98 | 143 | 7.0 | 12.0 | 0.00 | 0.00 | 0.00 | 44 | 1008.8 |
| 20260905234039 | 99 | 193 | 2.0 | 11.0 | 0.00 | 0.00 | 0.00 | 42 | 1008.5 |
| 20260905233539 | 100 | 89 | 7.0 | 9.0 | 0.00 | 0.00 | 0.00 | 39 | 1008.5 |
| 20260905233039 | 100 | 154 | 2.0 | 8.0 | 0.00 | 0.00 | 0.00 | 39 | 1008.6 |
| 20260905232534 | 100 | 155 | 5.0 | 7.0 | 0.00 | 0.00 | 0.00 | 39 | 1008.7 |
| 20260905232030 | 100 | 168 | 2.0 | 3.0 | 0.00 | 0.00 | 0.00 | 39 | 1008.5 |
| 20260905231525 | 99 | 182 | 2.0 | 5.0 | 0.00 | 0.00 | 0.00 | 39 | 1008.6 |
| 20260905231021 | 100 | 134 | 3.0 | 7.0 | 0.00 | 0.00 | 0.00 | 39 | 1008.5 |
| 20260905230520 | 100 | 192 | 1.0 | 7.0 | 0.00 | 0.00 | 0.00 | 39 | 1008.7 |
| 20260905230019 | 100 | 147 | 3.0 | 7.0 | 0.00 | 0.00 | 0.00 | 39 | 1008.6 |
| 20260905225513 | 102 | 111 | 3.0 | 6.0 | 0.00 | 0.00 | 0.00 | 38 | 1008.5 |
| 20260905225009 | 102 | 220 | 1.0 | 4.0 | 0.00 | 0.00 | 0.00 | 38 | 1008.7 |
| 20260905224504 | 101 | 233 | 1.0 | 3.0 | 0.00 | 0.00 | 0.00 | 38 | 1008.3 |
| 20260905224003 | 99 | 180 | 4.0 | 6.0 | 0.00 | 0.00 | 0.00 | 39 | 1008.5 |
| 20260905223501 | 98 | 211 | 3.0 | 4.0 | 0.00 | 0.00 | 0.00 | 40 | 1008.3 |
| 20260905222955 | 100 | 144 | 2.0 | 4.0 | 0.00 | 0.00 | 0.00 | 39 | 1008.5 |
| 20260905222450 | 99 | 110 | 1.0 | 6.0 | 0.00 | 0.00 | 0.00 | 40 | 1008.5 |
| 20260905221945 | 100 | 107 | 4.0 | 8.0 | 0.00 | 0.00 | 0.00 | 39 | 1008.7 |
| 20260905221442 | 99 | 143 | 2.0 | 6.0 | 0.00 | 0.00 | 0.00 | 41 | 1008.6 |
| 20260905220938 | 100 | 99 | 2.0 | 8.0 | 0.00 | 0.00 | 0.00 | 39 | 1008.8 |
| 20260905220434 | 101 | 93 | 6.0 | 7.0 | 0.00 | 0.00 | 0.00 | 38 | 1008.6 |
| 20260905215933 | 100 | 158 | 3.0 | 5.0 | 0.00 | 0.00 | 0.00 | 39 | 1008.6 |
| 20260905215428 | 100 | 110 | 5.0 | 9.0 | 0.00 | 0.00 | 0.00 | 39 | 1008.7 |
| 20260905214924 | 100 | 138 | 2.0 | 5.0 | 0.00 | 0.00 | 0.00 | 39 | 1008.7 |
| 20260905214419 | 101 | 296 | 0.0 | 3.0 | 0.00 | 0.00 | 0.00 | 38 | 1008.8 |
| 20260905213914 | 100 | 200 | 3.0 | 8.0 | 0.00 | 0.00 | 0.00 | 38 | 1008.8 |
| 20260905213411 | 100 | 29 | 3.0 | 7.0 | 0.00 | 0.00 | 0.00 | 38 | 1008.9 |
| 20260905212905 | 100 | 99 | 3.0 | 9.0 | 0.00 | 0.00 | 0.00 | 40 | 1009.0 |
| 20260905212400 | 100 | 83 | 5.0 | 7.0 | 0.00 | 0.00 | 0.00 | 39 | 1009.3 |
| 20260905211854 | 99 | 149 | 5.0 | 9.0 | 0.00 | 0.00 | 0.00 | 41 | 1009.3 |
| 20260905211350 | 99 | 16 | 4.0 | 7.0 | 0.00 | 0.00 | 0.00 | 39 | 1009.1 |
| 20260905210846 | 100 | 18 | 2.0 | 8.0 | 0.00 | 0.00 | 0.00 | 39 | 1009.1 |
| 20260905210346 | 100 | 53 | 4.0 | 9.0 | 0.00 | 0.00 | 0.00 | 39 | 1009.3 |
| 20260905205844 | 99 | 46 | 3.0 | 7.0 | 0.00 | 0.00 | 0.00 | 40 | 1009.4 |
| 20260905205339 | 99 | 94 | 4.0 | 13.0 | 0.00 | 0.00 | 0.00 | 39 | 1009.4 |
| 20260905204838 | 100 | 109 | 2.0 | 7.0 | 0.00 | 0.00 | 0.00 | 39 | 1009.5 |
| 20260905204335 | 100 | 191 | 2.0 | 9.0 | 0.00 | 0.00 | 0.00 | 39 | 1009.6 |
| 20260905203833 | 98 | 124 | 5.0 | 9.0 | 0.00 | 0.00 | 0.00 | 42 | 1009.6 |
| 20260905203330 | 99 | 336 | 2.0 | 5.0 | 0.00 | 0.00 | 0.00 | 40 | 1009.6 |
| 20260905202825 | 98 | 293 | 2.0 | 7.0 | 0.00 | 0.00 | 0.00 | 41 | 1009.6 |
| 20260905202320 | 98 | 276 | 4.0 | 5.0 | 0.00 | 0.00 | 0.00 | 41 | 1009.6 |
| 20260905201815 | 100 | 234 | 4.0 | 6.0 | 0.00 | 0.00 | 0.00 | 39 | 1010.0 |
| 20260905201311 | 98 | 179 | 7.0 | 10.0 | 0.00 | 0.00 | 0.00 | 41 | 1009.8 |
| 20260905200805 | 100 | 110 | 2.0 | 6.0 | 0.00 | 0.00 | 0.00 | 40 | 1010.0 |
| 20260905200301 | 99 | 139 | 4.0 | 6.0 | 0.00 | 0.00 | 0.00 | 40 | 1010.3 |
| 20260905195759 | 98 | 225 | 4.0 | 5.0 | 0.00 | 0.00 | 0.00 | 42 | 1010.2 |
| 20260905195254 | 98 | 269 | 2.0 | 5.0 | 0.00 | 0.00 | 0.00 | 43 | 1010.5 |
| 20260905194749 | 97 | 249 | 7.0 | 9.0 | 0.00 | 0.00 | 0.00 | 44 | 1010.4 |
| 20260905194249 | 97 | 249 | 7.0 | 9.0 | 0.00 | 0.00 | 0.00 | 44 | 1010.4 |
| 20260905193749 | 98 | 177 | 3.0 | 7.0 | 0.00 | 0.00 | 0.00 | 43 | 1010.7 |
| 20260905193249 | 97 | 158 | 3.0 | 6.0 | 0.00 | 0.00 | 0.00 | 45 | 1010.6 |
| 20260905192739 | 96 | 233 | 2.0 | 3.0 | 0.00 | 0.00 | 0.00 | 45 | 1010.7 |
| 20260905192236 | 98 | 156 | 4.0 | 8.0 | 0.00 | 0.00 | 0.00 | 43 | 1010.7 |
| 20260905191734 | 97 | 178 | 2.0 | 9.0 | 0.00 | 0.00 | 0.00 | 44 | 1010.9 |
| 20260905191233 | 97 | 215 | 1.0 | 7.0 | 0.00 | 0.00 | 0.00 | 45 | 1010.9 |
| 20260905190732 | 98 | 118 | 4.0 | 7.0 | 0.00 | 0.00 | 0.00 | 43 | 1011.3 |
| 20260905190230 | 96 | 3 | 7.0 | 8.0 | 0.00 | 0.00 | 0.00 | 46 | 1011.1 |
| 20260905185724 | 95 | 274 | 2.0 | 4.0 | 0.00 | 0.00 | 0.00 | 47 | 1011.2 |
| 20260905185219 | 96 | 253 | 4.0 | 6.0 | 0.00 | 0.00 | 0.00 | 46 | 1011.3 |
| 20260905184713 | 96 | 203 | 2.0 | 5.0 | 0.00 | 0.00 | 0.00 | 45 | 1011.8 |
| 20260905184212 | 96 | 213 | 2.0 | 7.0 | 0.00 | 0.00 | 0.00 | 46 | 1011.5 |
| 20260905183706 | 96 | 113 | 1.0 | 10.0 | 0.00 | 0.00 | 0.00 | 46 | 1011.7 |
| 20260905183202 | 96 | 229 | 4.0 | 6.0 | 0.00 | 0.00 | 0.00 | 45 | 1011.7 |
| 20260905182700 | 96 | 258 | 6.0 | 6.0 | 0.00 | 0.00 | 0.00 | 47 | 1012.1 |
| 20260905182155 | 95 | 267 | 3.0 | 4.0 | 0.00 | 0.00 | 0.00 | 48 | 1011.9 |
| 20260905181650 | 94 | 243 | 2.0 | 7.0 | 0.00 | 0.00 | 0.00 | 49 | 1012.0 |
| 20260905181149 | 95 | 209 | 3.0 | 5.0 | 0.00 | 0.00 | 0.00 | 47 | 1012.2 |
| 20260905180644 | 96 | 155 | 4.0 | 8.0 | 0.00 | 0.00 | 0.00 | 45 | 1012.0 |
| 20260905180139 | 96 | 245 | 4.0 | 9.0 | 0.00 | 0.00 | 0.00 | 45 | 1012.3 |
| 20260905175638 | 96 | 173 | 2.0 | 6.0 | 0.00 | 0.00 | 0.00 | 46 | 1012.2 |
| 20260905175134 | 95 | 267 | 2.0 | 7.0 | 0.00 | 0.00 | 0.00 | 47 | 1012.5 |
| 20260905174630 | 98 | 180 | 5.0 | 11.0 | 0.00 | 0.00 | 0.00 | 44 | 1012.4 |
| 20260905174125 | 98 | 296 | 3.0 | 5.0 | 0.00 | 0.00 | 0.00 | 45 | 1012.5 |
| 20260905173621 | 95 | 162 | 3.0 | 10.0 | 0.00 | 0.00 | 0.00 | 48 | 1012.5 |
| 20260905173116 | 97 | 137 | 3.0 | 4.0 | 0.00 | 0.00 | 0.00 | 45 | 1012.3 |
| 20260905172615 | 96 | 206 | 3.0 | 7.0 | 0.00 | 0.00 | 0.00 | 47 | 1012.6 |
| 20260905172110 | 95 | 170 | 4.0 | 8.0 | 0.00 | 0.00 | 0.00 | 48 | 1012.7 |
| 20260905171607 | 96 | 167 | 3.0 | 7.0 | 0.00 | 0.00 | 0.00 | 45 | 1012.9 |
| 20260905171102 | 95 | 179 | 8.0 | 9.0 | 0.00 | 0.00 | 0.00 | 48 | 1012.7 |
| 20260905170559 | 95 | 107 | 6.0 | 8.0 | 0.00 | 0.00 | 0.00 | 49 | 1012.6 |
| 20260905170054 | 94 | 238 | 5.0 | 8.0 | 0.00 | 0.00 | 0.00 | 48 | 1012.9 |
| 20260905165549 | 94 | 271 | 2.0 | 5.0 | 0.00 | 0.00 | 0.00 | 52 | 1012.8 |
| 20260905165044 | 93 | 298 | 3.0 | 6.0 | 0.00 | 0.00 | 0.00 | 52 | 1012.7 |
| 20260905164543 | 94 | 182 | 4.0 | 9.0 | 0.00 | 0.00 | 0.00 | 51 | 1012.7 |
| 20260905164038 | 95 | 175 | 4.0 | 10.0 | 0.00 | 0.00 | 0.00 | 50 | 1012.9 |
| 20260905163535 | 95 | 284 | 2.0 | 3.0 | 0.00 | 0.00 | 0.00 | 51 | 1012.7 |
| 20260905163031 | 93 | 215 | 4.0 | 5.0 | 0.00 | 0.00 | 0.00 | 52 | 1012.9 |
| 20260905162526 | 93 | 225 | 5.0 | 9.0 | 0.00 | 0.00 | 0.00 | 54 | 1012.6 |
| 20260905162020 | 94 | 231 | 4.0 | 6.0 | 0.00 | 0.00 | 0.00 | 51 | 1013.0 |
| 20260905161515 | 94 | 166 | 7.0 | 9.0 | 0.00 | 0.00 | 0.00 | 52 | 1012.9 |
| 20260905161012 | 93 | 211 | 5.0 | 9.0 | 0.00 | 0.00 | 0.00 | 54 | 1012.8 |
| 20260905160506 | 93 | 104 | 1.0 | 7.0 | 0.00 | 0.00 | 0.00 | 54 | 1012.8 |
| 20260905160005 | 92 | 174 | 5.0 | 7.0 | 0.00 | 0.00 | 0.00 | 55 | 1012.9 |
| 20260905155500 | 92 | 169 | 5.0 | 9.0 | 0.00 | 0.00 | 0.00 | 56 | 1012.8 |
| 20260905154959 | 92 | 243 | 5.0 | 6.0 | 0.00 | 0.00 | 0.00 | 57 | 1012.8 |
| 20260905154454 | 92 | 219 | 4.0 | 6.0 | 0.00 | 0.00 | 0.00 | 57 | 1012.8 |
| 20260905153949 | 92 | 213 | 1.0 | 6.0 | 0.00 | 0.00 | 0.00 | 58 | 1013.1 |
| 20260905153446 | 92 | 240 | 2.0 | 5.0 | 0.00 | 0.00 | 0.00 | 58 | 1012.8 |
| 20260905152945 | 90 | 205 | 3.0 | 10.0 | 0.00 | 0.00 | 0.00 | 60 | 1012.6 |
| 20260905152439 | 90 | 210 | 4.0 | 8.0 | 0.00 | 0.00 | 0.00 | 60 | 1012.7 |
| 20260905151934 | 90 | 219 | 3.0 | 8.0 | 0.00 | 0.00 | 0.00 | 60 | 1012.6 |
| 20260905151430 | 89 | 214 | 4.0 | 9.0 | 0.00 | 0.00 | 0.00 | 62 | 1012.9 |
| 20260905150925 | 89 | 251 | 3.0 | 8.0 | 0.00 | 0.00 | 0.00 | 62 | 1012.7 |
| 20260905150425 | 89 | 253 | 4.0 | 8.0 | 0.00 | 0.00 | 0.00 | 62 | 1012.7 |
| 20260905145921 | 89 | 256 | 7.0 | 8.0 | 0.00 | 0.00 | 0.00 | 62 | 1012.7 |
| 20260905145415 | 89 | 230 | 3.0 | 7.0 | 0.00 | 0.00 | 0.00 | 64 | 1012.7 |
| 20260905144910 | 89 | 257 | 4.0 | 8.0 | 0.00 | 0.00 | 0.00 | 64 | 1012.8 |
| 20260905144405 | 89 | 251 | 2.0 | 3.0 | 0.00 | 0.00 | 0.00 | 65 | 1012.9 |
| 20260905143903 | 88 | 238 | 2.0 | 6.0 | 0.00 | 0.00 | 0.00 | 66 | 1012.6 |
| 20260905143358 | 88 | 214 | 3.0 | 7.0 | 0.00 | 0.00 | 0.00 | 67 | 1012.5 |
| 20260905142857 | 87 | 212 | 3.0 | 6.0 | 0.00 | 0.00 | 0.00 | 69 | 1012.6 |
| 20260905142355 | 87 | 275 | 0.0 | 6.0 | 0.00 | 0.00 | 0.00 | 70 | 1012.6 |
| 20260905141852 | 86 | 205 | 5.0 | 7.0 | 0.00 | 0.00 | 0.00 | 71 | 1012.6 |
| 20260905141347 | 86 | 237 | 4.0 | 10.0 | 0.00 | 0.00 | 0.00 | 72 | 1012.8 |
| 20260905140843 | 86 | 259 | 2.0 | 5.0 | 0.00 | 0.00 | 0.00 | 74 | 1012.6 |
| 20260905140338 | 86 | 223 | 2.0 | 6.0 | 0.00 | 0.00 | 0.00 | 75 | 1012.6 |
| 20260905135836 | 85 | 222 | 3.0 | 4.0 | 0.00 | 0.00 | 0.00 | 76 | 1012.7 |
| 20260905135332 | 84 | 231 | 3.0 | 6.0 | 0.00 | 0.00 | 0.00 | 77 | 1012.8 |
| 20260905134827 | 84 | 211 | 3.0 | 5.0 | 0.00 | 0.00 | 0.00 | 77 | 1012.3 |
| 20260905134320 | 84 | 273 | 2.0 | 5.0 | 0.00 | 0.00 | 0.00 | 78 | 1012.5 |
| 20260905133815 | 84 | 200 | 4.0 | 5.0 | 0.00 | 0.00 | 0.00 | 79 | 1012.4 |
| 20260905133310 | 84 | 232 | 2.0 | 4.0 | 0.00 | 0.00 | 0.00 | 79 | 1012.5 |
| 20260905132809 | 84 | 236 | 0.0 | 2.0 | 0.00 | 0.00 | 0.00 | 79 | 1012.2 |
| 20260905132306 | 82 | 230 | 0.0 | 2.0 | 0.00 | 0.00 | 0.00 | 82 | 1012.2 |
| 20260905131759 | 81 | 174 | 1.0 | 4.0 | 0.00 | 0.00 | 0.00 | 84 | 1012.2 |
| 20260905131255 | 81 | 151 | 3.0 | 4.0 | 0.00 | 0.00 | 0.00 | 84 | 1012.0 |
| 20260905130755 | 80 | 129 | 0.0 | 5.0 | 0.00 | 0.00 | 0.00 | 86 | 1012.0 |
| 20260905130254 | 80 | 191 | 0.0 | 5.0 | 0.00 | 0.00 | 0.00 | 86 | 1011.9 |
| 20260905125749 | 79 | 161 | 1.0 | 3.0 | 0.00 | 0.00 | 0.00 | 86 | 1011.8 |
| 20260905125244 | 78 | 242 | 0.0 | 4.0 | 0.00 | 0.00 | 0.00 | 87 | 1011.9 |
| 20260905124741 | 78 | 75 | 0.0 | 4.0 | 0.00 | 0.00 | 0.00 | 88 | 1012.2 |
| 20260905124237 | 78 | 143 | 0.0 | 4.0 | 0.00 | 0.00 | 0.00 | 89 | 1012.2 |
| 20260905123732 | 77 | 166 | 1.0 | 3.0 | 0.00 | 0.00 | 0.00 | 90 | 1012.0 |